{"data":{"norad_id":56461,"epoch":"2026-09-20T14:04:46.374240Z","epoch_age_seconds":104525,"freshness":"FRESH","line1":"1 56461U 23064P   26263.58664785  .00000340  00000+0  36285-4 0  9999","line2":"2 56461  70.0008  12.8942 0003214 269.9192  90.1599 14.98331242184444","mean_motion":14.98331242,"eccentricity":0.0003214,"inclination_deg":70.0008,"raan_deg":12.8942,"arg_perigee_deg":269.9192,"mean_anomaly_deg":90.1599,"bstar":3.6285e-5,"rev_number":18444,"period_min":96.10691946047,"perigee_km":569.8182594038,"apogee_km":574.28584092525,"semimajor_km":6950.1890501645,"source":"CELESTRAK","updated_at":"2026-09-21T09:00:33.443681Z"}}